カタログに戻る

ATLAS 5 CENTAUR DEB

LostHEO
NORAD 49368·DEBRIS·🇺🇸 United States

打ち上げ Oct 17, 2018 から Cape Canaveral Space Force Station

Loading…

次のパス (今後24時間)

TLE

古いSource: Space-Track

元期: Jun 10, 2025, 21:41 UTC

1 49368U 18079FV  25161.90368572 -.00000093  00000-0  00000-0 0  9993
2 49368  12.1789  88.5109 4344838 210.0375 115.6332  1.77099486  7541

AllMySatでATLAS 5 CENTAUR DEBをリアルタイム追跡

Download on the App Store